Weather History for Orr, MN

Change the Weather History Date:

Thursday, January 23, 2014

  Actual Average Record
Temperature  
Mean Temperature -14 °F -  
Max Temperature 1 °F 14 °F 35 °F (2015)
Min Temperature -29 °F 0 °F -29 °F (2014)
Degree Days  
Heating Degree Days 79    
Moisture  
Dew Point -22 °F    
Average Humidity 65    
Maximum Humidity 76    
Minimum Humidity 55    
Precipitation  
Precipitation 0.00 in - - ()
Sea Level Pressure  
Sea Level Pressure 30.32 in    
Wind  
Wind Speed 6 mph (WSW)    
Max Wind Speed 15 mph    
Max Gust Speed 25 mph    
Visibility 10 miles    
Events      
Averages and records for this station are not official NWS values.
T = Trace of Precipitation, MM = Missing Value Source: NWS Daily Summary

Daily Weather History Graph

Daily Weather History Graph

Search for Another Location

Airport:

Trip Planner

Search our weather history database for the weather conditions in past years. The results will help you decide how hot, cold, wet, or windy it might be!

Date:

Astronomy

Jan. 23, 2014 Rise Set
Actual Time 7:49 AM CST 4:57 PM CST
Civil Twilight 7:15 AM CST 5:31 PM CST
Nautical Twilight 6:37 AM CST 6:09 PM CST
Astronomical Twilight 6:00 AM CST 6:46 PM CST
Moon 12:02 AM CST (1/23) 10:49 AM CST (1/23)
Length of Visible Light 10h 16m
Length of Day
9h 07m
Waning Gibbous, 55% of the Moon is Illuminated
Jan 23
Waning Gibbous
Jan 23
Last Quarter
Jan 30
New
Feb 6
First Quarter
Feb 14
Full

Hourly Weather History & Observations

Time (CST) Temp. Windchill Dew Point Humidity Pressure Visibility Wind Dir Wind Speed Gust Speed Precip Events Conditions
12:13 AM -18.4 °F -33.4 °F -23.8 °F 76% 30.41 in 10.0 mi NW 5.8 mph - N/A   Clear
12:33 AM -18.4 °F -31.4 °F -23.8 °F 76% 30.42 in 10.0 mi NW 4.6 mph - N/A   Clear
12:53 AM -18.4 °F -33.4 °F -25.6 °F 70% 30.43 in 10.0 mi NW 5.8 mph - N/A   Clear
1:13 AM -18.4 °F -33.4 °F -25.6 °F 70% 30.43 in 10.0 mi NW 5.8 mph - N/A   Clear
1:33 AM -18.4 °F -33.4 °F -25.6 °F 70% 30.43 in 10.0 mi NW 5.8 mph - N/A   Clear
1:53 AM -20.2 °F -35.5 °F -25.6 °F 76% 30.43 in 10.0 mi NW 5.8 mph - N/A   Clear
2:13 AM -20.2 °F -33.5 °F -27.4 °F 69% 30.45 in 10.0 mi NW 4.6 mph - N/A   Clear
2:33 AM -20.2 °F -35.5 °F -27.4 °F 69% 30.45 in 10.0 mi NW 5.8 mph - N/A   Clear
2:53 AM -20.2 °F -38.8 °F -27.4 °F 69% 30.46 in 10.0 mi NW 8.1 mph - N/A   Clear
3:13 AM -22.0 °F -39.4 °F -27.4 °F 76% 30.47 in 10.0 mi NW 6.9 mph - N/A   Clear
3:33 AM -22.0 °F -39.4 °F -27.4 °F 76% 30.47 in 10.0 mi NW 6.9 mph - N/A   Clear
3:53 AM -22.0 °F -37.7 °F -29.2 °F 69% 30.48 in 10.0 mi NW 5.8 mph - N/A   Clear
4:13 AM -23.8 °F -37.7 °F -29.2 °F 76% 30.49 in 10.0 mi NW 4.6 mph - N/A   Clear
4:33 AM -23.8 °F -37.7 °F -29.2 °F 76% 30.49 in 10.0 mi NW 4.6 mph - N/A   Clear
4:53 AM -25.6 °F -37.1 °F -32.8 °F 69% 30.49 in 10.0 mi NW 3.5 mph - N/A   Clear
5:13 AM -25.6 °F -39.8 °F -32.8 °F 69% 30.49 in 10.0 mi NW 4.6 mph - N/A   Clear
5:33 AM -27.4 °F - -36.4 °F 62% 30.50 in 10.0 mi Calm Calm - N/A   Clear
5:53 AM -25.6 °F -39.8 °F -32.8 °F 69% 30.51 in 10.0 mi NW 4.6 mph - N/A   Clear
6:13 AM -25.6 °F -39.8 °F -32.8 °F 69% 30.52 in 10.0 mi NW 4.6 mph - N/A   Clear
6:33 AM -27.4 °F -39.2 °F -34.6 °F 69% 30.52 in 10.0 mi NW 3.5 mph - N/A   Clear
6:53 AM -29.2 °F - -38.2 °F 62% 30.52 in 10.0 mi Calm Calm - N/A   Clear
7:13 AM -29.2 °F - -38.2 °F 62% 30.52 in 10.0 mi Calm Calm - N/A   Clear
7:33 AM -29.2 °F - -38.2 °F 62% 30.52 in 10.0 mi Calm Calm - N/A   Clear
7:53 AM -29.2 °F - -38.2 °F 62% 30.52 in 10.0 mi Calm Calm - N/A   Clear
8:13 AM -29.2 °F - -38.2 °F 62% 30.51 in 10.0 mi Calm Calm - N/A   Clear
8:33 AM -29.2 °F - -38.2 °F 62% 30.51 in 10.0 mi Calm Calm - N/A   Clear
8:53 AM -27.4 °F -39.2 °F -34.6 °F 69% 30.51 in 10.0 mi NW 3.5 mph - N/A   Clear
9:13 AM -25.6 °F - -32.8 °F 69% 30.52 in 10.0 mi Calm Calm - N/A   Clear
9:33 AM -23.8 °F - -29.2 °F 76% 30.52 in 10.0 mi Calm Calm - N/A   Clear
9:53 AM -22.0 °F - -27.4 °F 76% 30.51 in 10.0 mi Calm Calm - N/A   Clear
10:13 AM -20.2 °F - -27.4 °F 69% 30.52 in 10.0 mi Calm Calm - N/A   Clear
10:33 AM -16.6 °F - -25.6 °F 64% 30.51 in 10.0 mi Calm Calm - N/A   Clear
10:53 AM -16.6 °F - -23.8 °F 70% 30.51 in 10.0 mi Calm Calm - N/A   Clear
11:13 AM -14.8 °F -27.2 °F -23.8 °F 64% 30.50 in 10.0 mi SSW 4.6 mph - N/A   Clear
11:33 AM -14.8 °F -29.1 °F -23.8 °F 64% 30.49 in 10.0 mi SSW 5.8 mph - N/A   Clear
11:53 AM -13.0 °F -27.0 °F -22.0 °F 64% 30.48 in 10.0 mi SW 5.8 mph - N/A   Clear
12:13 PM -11.2 °F -26.4 °F -22.0 °F 59% 30.46 in 10.0 mi SSW 6.9 mph - N/A   Clear
12:33 PM -11.2 °F -26.4 °F -20.2 °F 64% 30.45 in 10.0 mi SW 6.9 mph - N/A   Clear
12:53 PM -9.4 °F -22.7 °F -20.2 °F 59% 30.44 in 10.0 mi SSW 5.8 mph - N/A   Clear
1:13 PM -9.4 °F -24.3 °F -20.2 °F 59% 30.43 in 10.0 mi SSW 6.9 mph - N/A   Clear
1:33 PM -7.6 °F -20.6 °F -18.4 °F 59% 30.41 in 10.0 mi South 5.8 mph - N/A   Clear
1:53 PM -7.6 °F -18.8 °F -18.4 °F 59% 30.40 in 10.0 mi WSW 4.6 mph - N/A   Clear
2:13 PM -5.8 °F -21.2 °F -18.4 °F 55% 30.39 in 10.0 mi WSW 8.1 mph - N/A   Clear
2:33 PM -4.0 °F -17.8 °F -16.6 °F 55% 30.38 in 10.0 mi WSW 6.9 mph - N/A   Clear
2:53 PM -4.0 °F -16.3 °F -16.6 °F 55% 30.37 in 10.0 mi SW 5.8 mph - N/A   Clear
3:13 PM -2.2 °F -15.6 °F -14.8 °F 55% 30.36 in 10.0 mi SW 6.9 mph - N/A   Clear
3:34 PM -2.2 °F -18.0 °F -14.8 °F 55% 30.35 in 10.0 mi SW 9.2 mph - N/A   Clear
3:53 PM -2.2 °F -18.0 °F -14.8 °F 55% 30.33 in 10.0 mi SW 9.2 mph - N/A   Clear
4:13 PM -4.0 °F -17.8 °F -14.8 °F 60% 30.31 in 10.0 mi SW 6.9 mph - N/A   Clear
4:33 PM -5.8 °F -19.9 °F -14.8 °F 65% 30.29 in 10.0 mi SSW 6.9 mph - N/A   Clear
4:53 PM -5.8 °F -19.9 °F -14.8 °F 65% 30.27 in 10.0 mi SSW 6.9 mph - N/A   Clear
5:13 PM -5.8 °F -19.9 °F -14.8 °F 65% 30.26 in 10.0 mi SSW 6.9 mph - N/A   Clear
5:33 PM -5.8 °F -18.4 °F -14.8 °F 65% 30.24 in 10.0 mi SSW 5.8 mph - N/A   Clear
5:53 PM -5.8 °F -22.4 °F -14.8 °F 65% 30.20 in 10.0 mi South 9.2 mph - N/A   Clear
6:14 PM -5.8 °F -22.4 °F -14.8 °F 65% 30.18 in 10.0 mi South 9.2 mph - N/A   Clear
6:33 PM -5.8 °F -21.2 °F -14.8 °F 65% 30.16 in 10.0 mi South 8.1 mph - N/A   Clear
6:53 PM -5.8 °F -23.4 °F -14.8 °F 65% 30.13 in 10.0 mi South 10.4 mph 16.1 mph N/A   Clear
7:13 PM -5.8 °F -23.4 °F -14.8 °F 65% 30.11 in 10.0 mi South 10.4 mph - N/A   Clear
7:33 PM -5.8 °F -23.4 °F -14.8 °F 65% 30.08 in 10.0 mi South 10.4 mph 17.3 mph N/A   Clear
7:53 PM -5.8 °F -25.2 °F -14.8 °F 65% 30.04 in 10.0 mi South 12.7 mph 18.4 mph N/A   Scattered Clouds
8:13 PM -5.8 °F -25.2 °F -14.8 °F 65% 30.01 in 10.0 mi South 12.7 mph 17.3 mph N/A   Mostly Cloudy
8:33 PM -4.0 °F -23.0 °F -14.8 °F 60% 29.98 in 10.0 mi South 12.7 mph 20.7 mph N/A   Mostly Cloudy
8:54 PM -4.0 °F -22.1 °F -14.8 °F 60% 29.96 in 10.0 mi South 11.5 mph - N/A   Overcast
9:13 PM -2.2 °F -19.9 °F -14.8 °F 55% 29.94 in 10.0 mi SSW 11.5 mph 18.4 mph N/A   Overcast
9:33 PM -2.2 °F -21.5 °F -13.0 °F 60% 29.90 in 10.0 mi South 13.8 mph 20.7 mph N/A   Overcast
9:53 PM -0.4 °F -19.9 °F -13.0 °F 55% 29.89 in 10.0 mi SSW 15.0 mph 25.3 mph N/A   Overcast
10:13 PM -0.4 °F -19.2 °F -13.0 °F 55% 29.85 in 10.0 mi SSW 13.8 mph 23.0 mph N/A   Overcast
10:33 PM -0.4 °F -17.6 °F -11.2 °F 60% 29.83 in 10.0 mi SSW 11.5 mph 21.9 mph N/A   Overcast
10:53 PM -0.4 °F -19.2 °F -11.2 °F 60% 29.80 in 10.0 mi SSW 13.8 mph 23.0 mph N/A   Overcast
11:13 PM -0.4 °F -17.6 °F -11.2 °F 60% 29.78 in 10.0 mi South 11.5 mph 20.7 mph N/A   Overcast
11:33 PM 1.4 °F -14.5 °F -9.4 °F 61% 29.75 in 10.0 mi SSW 10.4 mph 18.4 mph N/A   Overcast
11:53 PM 1.4 °F -14.5 °F -9.4 °F 61% 29.74 in 10.0 mi SSW 10.4 mph 17.3 mph N/A   Overcast